Retour au catalogue

STARLINK-30595

ActifCommunicationsVLEO
NORAD 58111·PAYLOAD·🇺🇸 United States

Lancé Oct 21, 2023 depuis Vandenberg Space Force Base

Loading…

Prochains Passages (prochaines 24 heures)

TLE

FraisSource: CelesTrak SupGP

Époque: Sep 15, 2026, 02:43 UTC

1 58111C 23161Q   26258.11368056  .00058834  00000+0  17383-2 0  2581
2 58111  53.1593   5.0924 0000989  77.3241 208.8546 15.34361539    18

Suivez STARLINK-30595 en temps réel avec AllMySat

Download on the App Store